• In Belarus
  • List of Countries
  • For 7 days
  • Water Temperature
  • Satellite Maps
  • Weather Map
  • Weather Widgets
  • user-avatar
    Login

    Hourly Weather Benguela

    Today, 20 October, Friday

    Time Temperature Precipitation Wind Pressure Humidity
    00:00 +27°C° 0 mm 2 mps 759 mmHg 83%
    01:00 +26°C° 0 mm 1 mps 759 mmHg 85%
    02:00 +26°C° 0 mm 1 mps 759 mmHg 86%
    03:00 +26°C° 0 mm 1 mps 759 mmHg 86%
    04:00 +26°C° 0 mm 1 mps 759 mmHg 86%
    05:00 +26°C° 0 mm 1 mps 759 mmHg 85%
    06:00 +26°C° 0 mm 1 mps 760 mmHg 83%
    07:00 +27°C° 0 mm 1 mps 760 mmHg 81%
    08:00 +29°C° 0 mm 1 mps 760 mmHg 70%
    09:00 +31°C° 0 mm 2 mps 760 mmHg 60%
    10:00 +34°C° 0 mm 2 mps 760 mmHg 49%
    11:00 +35°C° 0 mm 3 mps 759 mmHg 47%
    12:00 +35°C° 0 mm 3 mps 759 mmHg 46%
    13:00 +36°C° 0 mm 4 mps 758 mmHg 44%
    14:00 +35°C° 0 mm 4 mps 758 mmHg 46%
    15:00 +35°C° 0 mm 4 mps 758 mmHg 49%
    16:00 +34°C° 0 mm 4 mps 757 mmHg 51%
    17:00 +33°C° 0 mm 4 mps 758 mmHg 56%
    18:00 +30°C° 0 mm 4 mps 758 mmHg 62%
    19:00 +29°C° 0 mm 3 mps 759 mmHg 68%
    20:00 +28°C° 0 mm 3 mps 759 mmHg 69%
    21:00 +28°C° 0 mm 3 mps 760 mmHg 70%
    22:00 +28°C° 0 mm 3 mps 761 mmHg 71%
    23:00 +28°C° 0 mm 3 mps 760 mmHg 73%

    Tomorrow, 21 October, Saturday

    Time Temperature Precipitation Wind Pressure Humidity
    00:00 +27°C° 0 mm 2 mps 760 mmHg 74%
    01:00 +27°C° 0 mm 2 mps 760 mmHg 76%
    02:00 +27°C° 0 mm 2 mps 759 mmHg 77%
    03:00 +27°C° 0 mm 2 mps 759 mmHg 78%
    04:00 +26°C° 0 mm 2 mps 759 mmHg 79%
    05:00 +27°C° 0 mm 1 mps 759 mmHg 75%
    06:00 +28°C° 0 mm 1 mps 759 mmHg 71%
    07:00 +28°C° 0 mm 1 mps 759 mmHg 67%
    08:00 +31°C° 0 mm 2 mps 760 mmHg 59%
    09:00 +34°C° 0 mm 2 mps 760 mmHg 51%
    10:00 +36°C° 0 mm 2 mps 760 mmHg 43%
    11:00 +36°C° 0 mm 3 mps 759 mmHg 44%
    12:00 +36°C° 0 mm 4 mps 758 mmHg 44%
    13:00 +37°C° 0 mm 4 mps 758 mmHg 45%
    14:00 +36°C° 0 mm 4 mps 758 mmHg 49%
    15:00 +34°C° 0 mm 4 mps 757 mmHg 52%
    16:00 +33°C° 0 mm 5 mps 757 mmHg 56%
    17:00 +32°C° 0 mm 4 mps 758 mmHg 61%
    18:00 +29°C° 0 mm 3 mps 759 mmHg 66%
    19:00 +28°C° 0 mm 3 mps 759 mmHg 72%
    20:00 +28°C° 0 mm 3 mps 760 mmHg 72%
    21:00 +28°C° 0 mm 2 mps 760 mmHg 72%
    22:00 +27°C° 0 mm 2 mps 761 mmHg 73%
    23:00 +27°C° 0 mm 2 mps 760 mmHg 74%

    Day after tomorrow, 22 October, Sunday

    Time Temperature Precipitation Wind Pressure Humidity
    00:00 +27°C° 0 mm 2 mps 760 mmHg 75%
    01:00 +27°C° 0 mm 2 mps 760 mmHg 77%
    02:00 +26°C° 0 mm 1 mps 760 mmHg 77%
    03:00 +26°C° 0 mm 1 mps 760 mmHg 78%
    04:00 +26°C° 0 mm 1 mps 759 mmHg 79%
    05:00 +27°C° 0 mm 1 mps 760 mmHg 77%
    06:00 +27°C° 0 mm 1 mps 760 mmHg 74%
    07:00 +28°C° 0 mm 1 mps 760 mmHg 72%
    08:00 +30°C° 0 mm 1 mps 760 mmHg 63%
    09:00 +32°C° 0 mm 2 mps 760 mmHg 54%
    10:00 +35°C° 0 mm 2 mps 760 mmHg 45%
    11:00 +36°C° 0 mm 3 mps 759 mmHg 45%
    12:00 +36°C° 0 mm 3 mps 759 mmHg 44%
    13:00 +37°C° 0 mm 4 mps 758 mmHg 43%
    14:00 +36°C° 0 mm 4 mps 757 mmHg 48%
    15:00 +35°C° 0 mm 4 mps 757 mmHg 52%
    16:00 +34°C° 0 mm 4 mps 756 mmHg 56%
    17:00 +31°C° 0.1 mm 3 mps 757 mmHg 61%
    18:00 +30°C° 0.1 mm 3 mps 758 mmHg 67%
    19:00 +28°C° 0.1 mm 2 mps 759 mmHg 72%
    20:00 +28°C° 0.2 mm 2 mps 759 mmHg 72%
    21:00 +28°C° 0.2 mm 2 mps 759 mmHg 73%
    22:00 +28°C° 0.2 mm 2 mps 760 mmHg 73%
    23:00 +28°C° 0.4 mm 2 mps 759 mmHg 72%

    23 October, Monday

    Time Temperature Precipitation Wind Pressure Humidity
    00:00 +28°C° 0.4 mm 2 mps 759 mmHg 72%
    01:00 +28°C° 0.4 mm 2 mps 758 mmHg 71%
    02:00 +28°C° 0.4 mm 2 mps 758 mmHg 72%
    03:00 +28°C° 0.4 mm 2 mps 758 mmHg 73%
    04:00 +28°C° 0.4 mm 2 mps 757 mmHg 74%
    05:00 +28°C° 0.1 mm 1 mps 758 mmHg 72%
    06:00 +28°C° 0.1 mm 1 mps 758 mmHg 71%
    07:00 +29°C° 0.1 mm 1 mps 758 mmHg 70%
    08:00 +31°C° 0.1 mm 2 mps 758 mmHg 62%
    09:00 +34°C° 0.1 mm 2 mps 758 mmHg 54%
    10:00 +36°C° 0.1 mm 2 mps 758 mmHg 46%
    11:00 +36°C° 0 mm 3 mps 757 mmHg 46%
    12:00 +37°C° 0 mm 3 mps 757 mmHg 47%
    13:00 +37°C° 0 mm 4 mps 756 mmHg 47%
    14:00 +36°C° 0.3 mm 4 mps 756 mmHg 51%
    15:00 +35°C° 0.3 mm 3 mps 756 mmHg 56%
    16:00 +33°C° 0.3 mm 3 mps 755 mmHg 61%
    17:00 +31°C° 1.6 mm 2 mps 756 mmHg 66%
    18:00 +30°C° 1.6 mm 2 mps 757 mmHg 71%
    19:00 +29°C° 1.6 mm 1 mps 758 mmHg 76%
    20:00 +28°C° 1.4 mm 1 mps 758 mmHg 77%
    21:00 +28°C° 1.4 mm 1 mps 759 mmHg 78%
    22:00 +26°C° 1.4 mm 0 mps 759 mmHg 79%
    23:00 +28°C° 0.7 mm 1 mps 758 mmHg 81%

    24 October, Tuesday

    Time Temperature Precipitation Wind Pressure Humidity
    00:00 +28°C° 0.7 mm 1 mps 758 mmHg 82%
    01:00 +28°C° 0.7 mm 1 mps 757 mmHg 83%
    02:00 +28°C° 0.4 mm 1 mps 757 mmHg 84%
    03:00 +27°C° 0.4 mm 1 mps 757 mmHg 85%
    04:00 +27°C° 0.4 mm 1 mps 757 mmHg 86%
    05:00 +28°C° 0.3 mm 1 mps 758 mmHg 86%
    06:00 +28°C° 0.3 mm 1 mps 758 mmHg 85%
    07:00 +28°C° 0.3 mm 1 mps 759 mmHg 84%
    08:00 +30°C° 0.2 mm 1 mps 759 mmHg 76%
    09:00 +32°C° 0.2 mm 2 mps 759 mmHg 67%
    10:00 +35°C° 0.2 mm 3 mps 759 mmHg 58%
    11:00 +36°C° 0.1 mm 3 mps 758 mmHg 56%
    12:00 +36°C° 0.1 mm 4 mps 757 mmHg 55%
    13:00 +37°C° 0.1 mm 4 mps 756 mmHg 53%
    14:00 +36°C° 0 mm 4 mps 756 mmHg 57%
    15:00 +35°C° 0 mm 4 mps 756 mmHg 60%
    16:00 +34°C° 0 mm 4 mps 756 mmHg 64%
    17:00 +33°C° 0.3 mm 3 mps 756 mmHg 69%
    18:00 +31°C° 0.3 mm 3 mps 757 mmHg 74%
    19:00 +30°C° 0.3 mm 3 mps 758 mmHg 79%
    20:00 +29°C° 0.4 mm 2 mps 758 mmHg 80%
    21:00 +29°C° 0.4 mm 2 mps 759 mmHg 80%
    22:00 +29°C° 0.4 mm 2 mps 759 mmHg 80%
    23:00 +29°C° 0.1 mm 2 mps 759 mmHg 82%

    25 October, Wednesday

    Time Temperature Precipitation Wind Pressure Humidity
    00:00 +29°C° 0.1 mm 2 mps 758 mmHg 83%
    01:00 +28°C° 0.1 mm 3 mps 758 mmHg 85%
    02:00 +28°C° 0 mm 2 mps 758 mmHg 86%
    03:00 +28°C° 0 mm 2 mps 758 mmHg 88%
    04:00 +28°C° 0 mm 1 mps 758 mmHg 89%
    05:00 +28°C° 0.1 mm 1 mps 758 mmHg 88%
    06:00 +28°C° 0.1 mm 1 mps 759 mmHg 87%
    07:00 +28°C° 0.1 mm 1 mps 759 mmHg 86%
    08:00 +30°C° 0.2 mm 1 mps 759 mmHg 79%
    09:00 +31°C° 0.2 mm 2 mps 759 mmHg 73%
    10:00 +32°C° 0.2 mm 2 mps 759 mmHg 67%
    11:00 +33°C° 0 mm 3 mps 758 mmHg 65%
    12:00 +34°C° 0 mm 3 mps 758 mmHg 64%
    13:00 +34°C° 0 mm 3 mps 757 mmHg 62%
    14:00 +34°C° 0 mm 3 mps 757 mmHg 63%
    15:00 +34°C° 0 mm 4 mps 757 mmHg 63%
    16:00 +34°C° 0 mm 4 mps 757 mmHg 64%
    17:00 +33°C° 0 mm 4 mps 757 mmHg 69%
    18:00 +31°C° 0 mm 3 mps 757 mmHg 73%
    19:00 +30°C° 0 mm 3 mps 758 mmHg 78%
    20:00 +29°C° 0 mm 3 mps 758 mmHg 80%
    21:00 +29°C° 0 mm 3 mps 758 mmHg 82%
    22:00 +28°C° 0 mm 2 mps 758 mmHg 84%
    23:00 +28°C° 0.1 mm 2 mps 758 mmHg 85%
    Show more